Regional Weather Roundup
Issued by NWS Jackson, KY

Home | Current Version | Previous Version | Text Only | Print | Product List | Glossary On
Versions: 1 2 3 4 5 6 7 8 9 10 11 12 13 14 15 16 17 18 19 20 21 22 23 24 25 26 27 28 29 30 31 32 33 34 35 36 37 38 39 40 41 42 43 44 45 46 47 48 49 50
000
ASUS43 KJKL 260210
RWRJKL

EAST KENTUCKY HOURLY WEATHER ROUNDUP
NATIONAL WEATHER SERVICE JACKSON KY
1000 PM EDT WED MAY 25 2016

NOTE: "FAIR" INDICATES FEW OR NO CLOUDS BELOW 12,000 FEET WITH
NO SIGNIFICANT WEATHER AND/OR OBSTRUCTIONS TO VISIBILITY.

* THESE REPORTS ARE NOT UNDER NWS QUALITY CONTROL AND MAY NOT
  REPORT WEATHER SUCH AS PRECIPITATION AND FOG.

KYZ079-080-083-085-087-088-110-112-115-119-120-260300
...EASTERN KENTUCKY...

CITY           SKY/WX    TMP DP  RH WIND       PRES   REMARKS
JACKSON        CLOUDY    71  60  68 CALM      30.15S
LONDON         CLOUDY    71  65  81 CALM      30.14F
SOMERSET*      CLOUDY    70  61  73 SW3       30.15S
MONTICELLO*    LGT RAIN  67  66  97 NE8       30.15F
WILLIAMSBURG*  CLOUDY    70  61  73 SE3       30.16S
MIDDLESBORO*   MOCLDY    70  64  82 CALM      30.17F
HARLAN APT*      N/A     70  57  64 CALM      30.19R
HAZARD APT*    MOCLDY    72  61  68 S3        30.15S
BLACK MTN*       N/A     61  55  82 SW6         N/A
PIKE CO APT*   CLOUDY    74  57  55 CALM      30.16S
BIG SANDY APT* CLOUDY    74  61  62 CALM      30.15R
MOREHEAD APT*  PTCLDY    70  63  78 S5        30.13S
ASHLAND*       CLOUDY    73  63  68 CALM      30.09R
$$

KYZ035-036-041-042-044-050-067-078-099-260300
...CENTRAL KENTUCKY...

CITY           SKY/WX    TMP DP  RH WIND       PRES   REMARKS
MT STERLING*   CLOUDY    70  64  83 SW5       30.13R
FLEMING/MASON* MOCLDY   N/A N/A N/A S6        30.12R
DANVILLE*      CLOUDY    70  63  78 SW5       30.12S
RICHMOND*      CLOUDY    72  61  68 SW7       30.11S
LEXINGTON      MOCLDY    72  62  71 S9        30.11R
FRANKFORT      CLOUDY    73  62  68 S8        30.08R
LOUISVILLE     MOCLDY    73  61  65 S12       30.07R
LEBANON*         N/A     68  66  94 SE8       30.10S
GLASGOW*       RAIN      65  65 100 W6        30.13R
BOWLING GREEN  RAIN      68  66  93 S7        30.09F
$$

KYZ091>093-OHZ055-061-077-WVZ005-015-034-035-042-260300
...SOUTHERN OHIO/WEST VIRGINIA...

CITY           SKY/WX    TMP DP  RH WIND       PRES   REMARKS
COVINGTON      CLOUDY    73  64  73 S7        30.06R
COLUMBUS       MOCLDY    73  59  61 SE6       30.07R
DAYTON         MOCLDY    75  61  61 S8        30.06R
WILMINGTON     PTCLDY    72  62  71 S12       30.07R
HUNTINGTON     CLOUDY    71  65  81 S5        30.11S
CHARLESTON       N/A     71  64  78 CALM      30.12R
PINEVILLE*       N/A     64  58  80 MISG      30.23R
BECKLEY          N/A     68  54  60 SE6       30.21R
BLUEFIELD        N/A     69  52  54 SW5       30.25R
LOGAN CO APT*  MOCLDY    73  63  68 SW3       30.16R
$$

VAZ002-007-008-TNZ017-027-036-066-071-260300
...SOUTHWEST VIRGINIA/EAST TENNESSEE...

CITY           SKY/WX    TMP DP  RH WIND       PRES   REMARKS
WISE*          CLOUDY    68  50  52 CALM      30.25S
JONESVILLE*      N/A     68  63  83 CALM      30.21S
ABINGDON*        N/A     69  61  74 CALM      30.23R
BRISTOL        LGT RAIN  71  63  75 S3        30.20R
SEVIERVILLE*   CLEAR     70  61  73 CALM      30.17S
KNOXVILLE      MOCLDY    75  60  59 CALM      30.16R
OAK RIDGE      PTCLDY    74  62  66 CALM      30.17S
CROSSVILLE     MOCLDY    72  59  63 VRB3      30.20F
NASHVILLE      MOCLDY    67  64  90 E10       30.08F
$$

...KEY TO REMARKS...
VSB - VISIBILITY IN MILES
WCI - WIND CHILL INDEX
HX  - HEAT INDEX

$$



USA.gov is the U.S. government's official web portal to all federal, state and local government web resources and services.